GW2822 Weather Reports


time (UTC)temp
C
wind
direction
speed
KPH
gust
KPH
rain 1hr
cm
rain 24hr
cm
rain mn
cm
humidity
%
barometer
mb
20260906190037 27 92 3.2 9.7 0.00 0.00 0.00 79 1010.5
20260906185521 27 85 4.8 12.9 0.00 0.00 0.00 78 1010.7
20260906185010 27 90 4.8 12.9 0.00 0.00 0.00 78 1010.7
20260906184604 27 70 6.4 11.3 0.00 0.00 0.00 79 1010.8
20260906184051 27 80 3.2 9.7 0.00 0.00 0.00 77 1010.7
20260906183540 27 72 4.8 12.9 0.00 0.00 0.00 76 1010.8
20260906183048 27 71 3.2 16.1 0.00 0.00 0.00 74 1010.8
20260906182517 27 59 3.2 8.0 0.00 0.00 0.00 76 1010.8
20260906182006 27 202 0.0 4.8 0.00 0.00 0.00 75 1010.9
20260906181604 27 183 1.6 9.7 0.00 0.00 0.00 75 1010.9
20260906181047 28 157 3.2 9.7 0.00 0.00 0.00 75 1011.0
20260906180536 28 123 1.6 8.0 0.00 0.00 0.00 73 1010.9
20260906180018 28 126 1.6 12.9 0.00 0.00 0.00 71 1011.0
20260906175502 28 142 6.4 17.7 0.00 0.00 0.00 69 1011.1
20260906175054 29 128 8.0 19.3 0.00 0.00 0.00 67 1011.2
20260906174541 30 153 11.3 19.3 0.00 0.00 0.00 67 1011.2
20260906174031 30 138 0.0 6.4 0.00 0.00 0.00 64 1011.2
20260906173520 30 278 1.6 8.0 0.00 0.00 0.00 63 1011.2
20260906173011 30 313 0.0 9.7 0.00 0.00 0.00 63 1011.2
20260906172601 30 324 0.0 11.3 0.00 0.00 0.00 62 1011.2
20260906172051 30 283 1.6 11.3 0.00 0.00 0.00 60 1011.3
20260906171541 30 345 1.6 11.3 0.00 0.00 0.00 63 1011.3
20260906171029 29 282 3.2 11.3 0.00 0.00 0.00 67 1011.5
20260906170519 28 340 1.6 9.7 0.00 0.00 0.00 68 1011.6
20260906165547 28 360 0.0 8.0 0.00 0.00 0.00 72 1011.6
20260906165036 28 269 1.6 8.0 0.00 0.00 0.00 74 1011.6
20260906164526 28 309 1.6 8.0 0.00 0.00 0.00 72 1011.7
20260906164019 28 331 1.6 11.3 0.00 0.00 0.00 70 1011.7
20260906163507 28 323 3.2 12.9 0.00 0.00 0.00 71 1011.7
20260906163058 28 319 4.8 12.9 0.00 0.00 0.00 70 1011.7
20260906162544 28 297 3.2 12.9 0.00 0.00 0.00 71 1011.7
20260906162030 28 301 1.6 6.4 0.00 0.00 0.00 71 1011.7
20260906161519 28 355 0.0 8.0 0.00 0.00 0.00 71 1011.7
20260906161009 28 317 1.6 6.4 0.00 0.00 0.00 74 1011.6
20260906160602 28 342 1.6 6.4 0.00 0.00 0.00 75 1011.7
20260906160038 28 327 1.6 6.4 0.00 0.00 0.00 76 1011.8
20260906155531 28 342 1.6 6.4 0.00 0.00 0.00 74 1011.7
20260906155020 29 346 1.6 4.8 0.00 0.00 0.00 71 1011.6
20260906154506 28 153 0.0 9.7 0.00 0.00 0.00 70 1011.6
20260906154058 28 153 0.0 9.7 0.00 0.00 0.00 70 1011.5
20260906153547 28 144 3.2 8.0 0.00 0.00 0.00 70 1011.5
20260906153038 28 157 0.0 6.4 0.00 0.00 0.00 71 1011.5
20260906152526 28 172 1.6 6.4 0.00 0.00 0.00 70 1011.4
20260906152016 29 174 1.6 9.7 0.00 0.00 0.00 71 1011.3
20260906151514 28 171 1.6 11.3 0.00 0.00 0.00 71 1011.3
20260906151057 28 175 4.8 11.3 0.00 0.00 0.00 71 1011.2
20260906150544 28 188 3.2 9.7 0.00 0.00 0.00 72 1011.2
20260906150021 28 146 6.4 11.3 0.00 0.00 0.00 72 1011.1
20260906145510 28 126 0.0 8.0 0.00 0.00 0.00 73 1011.2
20260906145102 28 150 3.2 8.0 0.00 0.00 0.00 73 1011.2
20260906144559 28 213 3.2 9.7 0.00 0.00 0.00 73 1011.1
20260906144040 28 206 1.6 11.3 0.00 0.00 0.00 73 1011.1
20260906143530 28 205 4.8 11.3 0.00 0.00 0.00 74 1011.2
20260906143019 28 122 4.8 11.3 0.00 0.00 0.00 75 1011.1
20260906142508 28 175 1.6 8.0 0.00 0.00 0.00 76 1011.1
20260906142102 28 134 1.6 6.4 0.00 0.00 0.00 78 1011.1
20260906141551 27 186 3.2 11.3 0.00 0.00 0.00 79 1011.0
20260906141038 27 123 3.2 11.3 0.00 0.00 0.00 80 1011.0
20260906140532 27 156 0.0 11.3 0.00 0.00 0.00 82 1011.0
20260906140007 26 148 6.4 11.3 0.00 0.00 0.00 83 1011.1
20260906135556 26 166 4.8 9.7 0.00 0.00 0.00 83 1011.1
20260906135046 26 177 3.2 9.7 0.00 0.00 0.00 84 1011.1
20260906134541 26 158 1.6 11.3 0.00 0.00 0.00 85 1011.0
20260906134024 25 176 6.4 11.3 0.00 0.00 0.00 85 1011.0
20260906133514 25 196 3.2 8.0 0.00 0.00 0.00 86 1010.9
20260906133002 25 227 0.0 1.6 0.00 0.00 0.00 86 1010.8
20260906132554 24 138 0.0 3.2 0.00 0.00 0.00 87 1010.9
20260906132043 24 144 0.0 3.2 0.00 0.00 0.00 87 1010.8
20260906131535 23 163 0.0 1.6 0.00 0.00 0.00 88 1010.7
20260906131028 23 163 0.0 3.2 0.00 0.00 0.00 88 1010.7
20260906130511 23 163 0.0 3.2 0.00 0.00 0.00 88 1010.7
20260906130059 23 231 0.0 3.2 0.00 0.00 0.00 89 1010.6
20260906125543 22 255 0.0 3.2 0.00 0.00 0.00 89 1010.6
20260906125028 22 255 0.0 3.2 0.00 0.00 0.00 89 1010.5
20260906124517 22 258 0.0 1.6 0.00 0.00 0.00 88 1010.4
20260906124008 22 258 0.0 1.6 0.00 0.00 0.00 88 1010.3
20260906123600 22 250 0.0 1.6 0.00 0.00 0.00 88 1010.3
20260906123047 22 166 0.0 0.0 0.00 0.00 0.00 87 1010.2
20260906122539 22 166 0.0 3.2 0.00 0.00 0.00 87 1010.2
20260906122026 22 174 0.0 3.2 0.00 0.00 0.00 87 1010.0
20260906121529 22 174 0.0 0.0 0.00 0.00 0.00 87 1009.9
20260906121005 22 174 0.0 0.0 0.00 0.00 0.00 87 1009.7
20260906120556 22 174 0.0 0.0 0.00 0.00 0.00 87 1009.6
20260906120033 22 174 0.0 0.0 0.00 0.00 0.00 87 1009.5
20260906115519 22 174 0.0 0.0 0.00 0.00 0.00 87 1009.5
20260906115008 23 174 0.0 0.0 0.00 0.00 0.00 87 1009.4
20260906114612 23 174 0.0 0.0 0.00 0.00 0.00 87 1009.4
20260906114048 23 174 0.0 0.0 0.00 0.00 0.00 87 1009.4
20260906113539 23 174 0.0 0.0 0.00 0.00 0.00 87 1009.3
20260906113042 23 174 0.0 0.0 0.00 0.00 0.00 87 1009.3
20260906112516 22 174 0.0 0.0 0.00 0.00 0.00 87 1009.2
20260906112006 23 174 0.0 0.0 0.00 0.00 0.00 87 1009.2
20260906111557 23 174 0.0 0.0 0.00 0.00 0.00 87 1009.2
20260906111047 22 174 0.0 0.0 0.00 0.00 0.00 87 1009.0
20260906110537 22 174 0.0 0.0 0.00 0.00 0.00 87 1008.9
20260906110013 23 174 0.0 0.0 0.00 0.00 0.00 87 1008.9
20260906105502 23 174 0.0 0.0 0.00 0.00 0.00 87 1008.9
20260906105054 22 174 0.0 0.0 0.00 0.00 0.00 87 1008.7
20260906104542 23 174 0.0 0.0 0.00 0.00 0.00 87 1008.7
20260906104035 23 174 0.0 0.0 0.00 0.00 0.00 87 1008.8
20260906103522 23 174 0.0 0.0 0.00 0.00 0.00 87 1008.9
20260906103011 23 174 0.0 0.0 0.00 0.00 0.00 87 1008.7
20260906102502 22 174 0.0 0.0 0.00 0.00 0.00 87 1008.6
20260906102052 23 174 0.0 0.0 0.00 0.00 0.00 87 1008.6
20260906101542 23 174 0.0 0.0 0.00 0.00 0.00 86 1008.5
20260906101031 23 174 0.0 0.0 0.00 0.00 0.00 86 1008.5
20260906100520 23 174 0.0 0.0 0.00 0.00 0.00 85 1008.6
20260906100100 23 174 0.0 0.0 0.00 0.00 0.00 85 1008.6
20260906095549 23 174 0.0 0.0 0.00 0.00 0.00 85 1008.7
20260906095041 23 174 0.0 0.0 0.00 0.00 0.00 84 1008.8
20260906094532 23 174 0.0 0.0 0.00 0.00 0.00 83 1008.8
20260906094016 23 174 0.0 0.0 0.00 0.00 0.00 83 1008.9
20260906093507 23 174 0.0 0.0 0.00 0.00 0.00 83 1008.9
20260906093058 23 174 0.0 0.0 0.00 0.00 0.00 83 1008.9
20260906092547 23 174 0.0 0.0 0.00 0.00 0.00 82 1009.0
20260906092036 23 174 0.0 0.0 0.00 0.00 0.00 82 1008.9
20260906091532 23 174 0.0 0.0 0.00 0.00 0.00 82 1008.9
20260906091016 23 174 0.0 0.0 0.00 0.00 0.00 82 1009.0
20260906090503 24 174 0.0 0.0 0.00 0.00 0.00 82 1009.0
20260906090044 24 174 0.0 0.0 0.00 0.00 0.00 82 1008.9
20260906085532 24 174 0.0 0.0 0.00 0.00 0.00 81 1009.0
20260906085022 25 174 0.0 0.0 0.00 0.00 0.00 80 1009.0
20260906084511 25 174 0.0 0.0 0.00 0.00 0.00 80 1009.0
20260906084104 25 174 0.0 0.0 0.00 0.00 0.00 80 1009.0
20260906083551 25 174 0.0 0.0 0.00 0.00 0.00 80 1008.9
20260906083041 25 174 0.0 0.0 0.00 0.00 0.00 80 1008.9
20260906082531 25 174 0.0 0.0 0.00 0.00 0.00 79 1009.1
20260906082016 25 174 0.0 0.0 0.00 0.00 0.00 79 1009.1
20260906081511 25 174 0.0 3.2 0.00 0.00 0.00 79 1009.0
20260906081058 25 174 0.0 3.2 0.00 0.00 0.00 79 1009.0
20260906080547 25 174 0.0 8.0 0.00 0.00 0.00 78 1009.1
20260906080025 25 154 0.0 3.2 0.00 0.00 0.00 78 1009.2
20260906075513 25 153 0.0 9.7 0.00 0.00 0.00 78 1009.3
20260906075003 25 167 1.6 8.0 0.00 0.00 0.00 77 1009.3
20260906074610 26 167 0.0 8.0 0.00 0.00 0.00 77 1009.4
20260906074043 26 160 0.0 4.8 0.00 0.00 0.00 76 1009.5
20260906073533 26 159 0.0 3.2 0.00 0.00 0.00 76 1009.5
20260906073023 26 159 0.0 4.8 0.00 0.00 0.00 76 1009.6
20260906072512 26 159 0.0 4.8 0.00 0.00 0.00 76 1009.5
20260906072003 26 159 0.0 4.8 0.00 0.00 0.00 76 1009.6
20260906071555 26 192 1.6 9.7 0.00 0.00 0.00 76 1009.7
20260906071042 26 184 3.2 9.7 0.00 0.00 0.00 75 1009.7
20260906070533 26 186 3.2 9.7 0.00 0.00 0.00 75 1009.8
20260906070008 26 186 1.6 6.4 0.00 0.00 0.00 75 1009.8
20260906065600 26 198 0.0 8.0 0.00 0.00 0.00 74 1009.9
20260906065053 26 188 1.6 8.0 0.00 0.00 0.00 74 1009.9
20260906064538 26 201 1.6 6.4 0.00 0.00 0.00 74 1009.8
20260906064028 26 173 0.0 6.4 0.00 0.00 0.00 73 1009.9
20260906063516 26 167 0.0 9.7 0.00 0.00 0.00 73 1010.0
20260906063006 26 159 1.6 9.7 0.00 0.00 0.00 73 1010.0
20260906062558 27 174 1.6 9.7 0.00 0.00 0.00 73 1010.0
20260906062050 27 167 1.6 8.0 0.00 0.00 0.00 72 1010.1
20260906061537 27 167 3.2 8.0 0.00 0.00 0.00 72 1010.1
20260906061026 27 163 1.6 9.7 0.00 0.00 0.00 72 1010.2
20260906060518 27 168 3.2 9.7 0.00 0.00 0.00 72 1010.2
20260906060056 27 168 3.2 11.3 0.00 0.00 0.00 72 1010.2
20260906055545 27 197 1.6 11.3 0.00 0.00 0.00 72 1010.2
20260906055035 27 225 3.2 11.3 0.00 0.00 0.00 72 1010.1
20260906054529 27 190 4.8 11.3 0.00 0.00 0.00 72 1010.1
20260906054013 27 184 4.8 12.9 0.00 0.00 0.00 72 1010.1
20260906053503 27 190 8.0 16.1 0.00 0.00 0.00 72 1010.1
20260906053054 27 188 8.0 16.1 0.00 0.00 0.00 72 1010.2
20260906052543 27 173 3.2 14.5 0.00 0.00 0.00 72 1010.3
20260906052032 27 166 9.7 16.1 0.00 0.00 0.00 72 1010.3
20260906051521 27 181 3.2 19.3 0.00 0.00 0.00 71 1010.3
20260906051011 28 183 14.5 19.3 0.00 0.00 0.00 71 1010.3
20260906050604 28 158 12.9 17.7 0.00 0.00 0.00 71 1010.3
20260906050046 28 150 6.4 14.5 0.00 0.00 0.00 71 1010.3
20260906045530 28 181 3.2 16.1 0.00 0.00 0.00 70 1010.3
20260906045017 28 143 8.0 17.7 0.00 0.00 0.00 70 1010.3
20260906044507 28 153 8.0 17.7 0.00 0.00 0.00 70 1010.4
20260906044058 28 148 6.4 14.5 0.00 0.00 0.00 69 1010.3
20260906043544 28 127 1.6 14.5 0.00 0.00 0.00 69 1010.2
20260906043034 28 149 4.8 14.5 0.00 0.00 0.00 69 1010.3
20260906042523 28 163 8.0 17.7 0.00 0.00 0.00 68 1010.4
20260906042013 28 167 9.7 17.7 0.00 0.00 0.00 68 1010.4
20260906041503 28 192 6.4 14.5 0.00 0.00 0.00 67 1010.4
20260906041053 28 158 3.2 11.3 0.00 0.00 0.00 66 1010.2
20260906040544 29 175 4.8 19.3 0.00 0.00 0.00 66 1010.2
20260906040028 29 148 8.0 19.3 0.00 0.00 0.00 66 1010.1
20260906035509 29 142 6.4 14.5 0.00 0.00 0.00 65 1010.0
20260906035101 29 121 6.4 11.3 0.00 0.00 0.00 65 1009.9
20260906034550 29 144 3.2 9.7 0.00 0.00 0.00 64 1009.9
20260906034039 29 146 3.2 9.7 0.00 0.00 0.00 63 1009.9
20260906033531 29 136 3.2 8.0 0.00 0.00 0.00 62 1009.8
20260906033035 29 134 1.6 6.4 0.00 0.00 0.00 62 1009.8
20260906032508 29 120 1.6 8.0 0.00 0.00 0.00 62 1009.8
20260906032100 29 130 3.2 8.0 0.00 0.00 0.00 61 1009.6
20260906031558 29 118 0.0 4.8 0.00 0.00 0.00 61 1009.6
20260906031040 30 118 1.6 6.4 0.00 0.00 0.00 60 1009.6
20260906030529 30 117 1.6 6.4 0.00 0.00 0.00 60 1009.4
20260906030010 30 109 0.0 4.8 0.00 0.00 0.00 60 1009.1
20260906025556 30 113 1.6 6.4 0.00 0.00 0.00 60 1009.0
20260906025046 30 121 3.2 6.4 0.00 0.00 0.00 59 1008.9
20260906024537 30 143 1.6 9.7 0.00 0.00 0.00 59 1008.7
20260906024026 30 113 3.2 9.7 0.00 0.00 0.00 59 1008.6
20260906023515 30 111 3.2 11.3 0.00 0.00 0.00 59 1008.5
20260906023003 30 98 1.6 11.3 0.00 0.00 0.00 59 1008.5
20260906022556 30 112 1.6 11.3 0.00 0.00 0.00 59 1008.5
20260906022047 30 114 3.2 14.5 0.00 0.00 0.00 58 1008.3
20260906021535 30 111 4.8 17.7 0.00 0.00 0.00 58 1008.2
20260906021023 30 99 6.4 16.1 0.00 0.00 0.00 57 1008.1
20260906020513 30 115 8.0 16.1 0.00 0.00 0.00 57 1008.1
20260906020100 30 119 4.8 12.9 0.00 0.00 0.00 56 1008.1
20260906015542 30 107 3.2 11.3 0.00 0.00 0.00 56 1008.1
20260906015031 30 113 4.8 20.9 0.00 0.00 0.00 55 1007.9
20260906014520 30 104 4.8 20.9 0.00 0.00 0.00 54 1007.9
20260906014009 30 68 0.0 12.9 0.00 0.00 0.00 54 1007.9
20260906013605 31 117 0.0 0.0 0.00 0.00 0.00 51 1007.8
20260906013050 31 117 0.0 0.0 0.00 0.00 0.00 51 1007.7
20260906012543 31 117 0.0 0.0 0.00 0.00 0.00 51 1007.6
20260906012028 31 117 0.0 0.0 0.00 0.00 0.00 50 1007.6
20260906011523 32 117 0.0 3.2 0.00 0.00 0.00 48 1007.7
20260906011008 32 117 0.0 3.2 0.00 0.00 0.00 48 1007.6
20260906010558 32 117 0.0 0.0 0.00 0.00 0.00 47 1007.6
20260906010036 32 117 0.0 4.8 0.00 0.00 0.00 46 1007.5
20260906005526 33 117 0.0 4.8 0.00 0.00 0.00 46 1007.5
20260906005017 33 105 0.0 4.8 0.00 0.00 0.00 45 1007.5
20260906004504 33 105 1.6 6.4 0.00 0.00 0.00 45 1007.3
20260906004054 33 94 3.2 12.9 0.00 0.00 0.00 44 1007.3
20260906003541 33 126 3.2 12.9 0.00 0.00 0.00 44 1007.3
20260906003031 34 175 1.6 11.3 0.00 0.00 0.00 43 1007.2
20260906002521 34 112 1.6 12.9 0.00 0.00 0.00 43 1007.2
20260906002010 34 134 4.8 14.5 0.00 0.00 0.00 43 1007.4
20260906001600 34 115 3.2 14.5 0.00 0.00 0.00 42 1007.3
20260906001050 34 161 6.4 16.1 0.00 0.00 0.00 42 1007.4
20260906000539 35 73 6.4 16.1 0.00 0.00 0.00 41 1007.4
20260906000017 35 167 3.2 14.5 0.00 0.00 0.00 40 1007.4
20260905235506 35 97 3.2 14.5 0.00 0.00 0.00 40 1007.4
20260905235057 35 73 3.2 16.1 0.00 0.00 0.00 40 1007.4
20260905234547 35 135 8.0 16.1 0.00 0.00 0.00 39 1007.4
20260905234035 35 117 6.4 14.5 0.00 0.00 0.00 39 1007.4
20260905233526 35 123 6.4 20.9 0.00 0.00 0.00 39 1007.3
20260905233014 35 84 8.0 20.9 0.00 0.00 0.00 38 1007.3
20260905232503 35 130 6.4 16.1 0.00 0.00 0.00 38 1007.4
20260905232055 35 89 4.8 17.7 0.00 0.00 0.00 38 1007.3
20260905231544 36 108 8.0 17.7 0.00 0.00 0.00 37 1007.3
20260905231036 36 115 6.4 16.1 0.00 0.00 0.00 37 1007.3
20260905230522 36 200 9.7 16.1 0.00 0.00 0.00 36 1007.3
20260905230105 36 101 1.6 12.9 0.00 0.00 0.00 36 1007.2
20260905225552 36 97 1.6 12.9 0.00 0.00 0.00 37 1007.2
20260905225040 36 110 6.4 16.1 0.00 0.00 0.00 37 1007.3
20260905224545 36 113 6.4 16.1 0.00 0.00 0.00 36 1007.3
20260905224024 36 134 3.2 14.5 0.00 0.00 0.00 37 1007.3
20260905223509 36 101 3.2 12.9 0.00 0.00 0.00 37 1007.3
20260905223101 36 188 9.7 12.9 0.00 0.00 0.00 38 1007.2
20260905222550 36 177 8.0 16.1 0.00 0.00 0.00 38 1007.3
20260905222040 35 150 8.0 16.1 0.00 0.00 0.00 39 1007.3
20260905221531 35 91 1.6 17.7 0.00 0.00 0.00 39 1007.4
20260905221023 35 65 6.4 17.7 0.00 0.00 0.00 39 1007.5
20260905220510 35 126 6.4 17.7 0.00 0.00 0.00 41 1007.6
20260905220103 35 55 4.8 14.5 0.00 0.00 0.00 41 1007.6
20260905215539 35 94 4.8 17.7 0.00 0.00 0.00 41 1007.5
20260905215028 35 162 1.6 20.9 0.00 0.00 0.00 41 1007.5
20260905214518 36 76 8.0 20.9 0.00 0.00 0.00 40 1007.5
20260905214008 36 80 8.0 14.5 0.00 0.00 0.00 40 1007.5
20260905213559 36 62 4.8 12.9 0.00 0.00 0.00 40 1007.4
20260905213051 36 63 6.4 19.3 0.00 0.00 0.00 41 1007.6
20260905212537 36 65 8.0 19.3 0.00 0.00 0.00 41 1007.5
20260905212026 36 105 3.2 11.3 0.00 0.00 0.00 41 1007.6
20260905211516 36 69 1.6 17.7 0.00 0.00 0.00 41 1007.6
20260905211006 36 90 9.7 17.7 0.00 0.00 0.00 40 1007.6
20260905210558 37 90 8.0 14.5 0.00 0.00 0.00 39 1007.6
20260905210035 37 190 4.8 16.1 0.00 0.00 0.00 39 1007.7
20260905205524 37 123 3.2 14.5 0.00 0.00 0.00 40 1007.9
20260905205013 36 190 8.0 24.1 0.00 0.00 0.00 41 1007.9
20260905204506 36 189 8.0 24.1 0.00 0.00 0.00 41 1008.1
20260905204053 36 113 0.0 8.0 0.00 0.00 0.00 42 1008.1
20260905203545 35 51 3.2 9.7 0.00 0.00 0.00 42 1008.2
20260905203037 35 71 3.2 22.5 0.00 0.00 0.00 43 1008.4
20260905202521 35 154 9.7 22.5 0.00 0.00 0.00 44 1008.5
20260905202012 34 113 0.0 16.1 0.00 0.00 0.00 44 1008.5
20260905201500 35 93 9.7 19.3 0.00 0.00 0.00 43 1008.6
20260905201057 35 244 8.0 19.3 0.00 0.00 0.00 43 1008.7
20260905200541 35 140 9.7 19.3 0.00 0.00 0.00 44 1008.8
20260905200021 35 181 9.7 19.3 0.00 0.00 0.00 45 1008.9
20260905195049 35 95 4.8 14.5 0.00 0.00 0.00 46 1009.0
20260905194539 35 138 3.2 11.3 0.00 0.00 0.00 45 1009.1
20260905194029 35 90 1.6 14.5 0.00 0.00 0.00 45 1009.2
20260905193517 35 94 3.2 14.5 0.00 0.00 0.00 43 1009.3
20260905193008 35 119 3.2 16.1 0.00 0.00 0.00 43 1009.3
20260905192558 35 166 6.4 16.1 0.00 0.00 0.00 44 1009.4
20260905192048 35 124 0.0 16.1 0.00 0.00 0.00 46 1009.5
20260905191537 34 109 4.8 16.1 0.00 0.00 0.00 47 1009.5
20260905191028 35 78 6.4 17.7 0.00 0.00 0.00 46 1009.7
20260905190515 35 171 6.4 16.1 0.00 0.00 0.00 45 1009.7